TimeEDT,TemperatureF,Dew PointF,Humidity,Sea Level PressureIn,VisibilityMPH,Wind Direction,Wind SpeedMPH,Gust SpeedMPH,PrecipitationIn,Events,Conditions,WindDirDegrees,DateUTC
12:53 AM,55.9,48.9,77,29.85,10.0,West,3.5,-,N/A,,Clear,280,2012-09-09 04:53:00
1:53 AM,55.9,48.9,77,29.85,10.0,Calm,Calm,-,N/A,,Mostly Cloudy,0,2012-09-09 05:53:00
2:53 AM,54.0,48.0,80,29.84,10.0,West,3.5,-,N/A,,Clear,280,2012-09-09 06:53:00
3:53 AM,53.1,48.0,83,29.86,10.0,Calm,Calm,-,N/A,,Clear,0,2012-09-09 07:53:00
4:53 AM,52.0,50.0,93,29.87,10.0,Calm,Calm,-,N/A,,Clear,0,2012-09-09 08:53:00
5:53 AM,50.0,48.0,93,29.88,10.0,Calm,Calm,-,N/A,,Clear,0,2012-09-09 09:53:00
6:53 AM,51.1,48.9,92,29.91,10.0,WNW,3.5,-,N/A,,Partly Cloudy,290,2012-09-09 10:53:00
7:53 AM,53.1,48.9,86,29.93,10.0,Calm,Calm,-,N/A,,Partly Cloudy,0,2012-09-09 11:53:00
8:53 AM,57.0,51.1,81,29.94,10.0,NNW,5.8,-,N/A,,Partly Cloudy,330,2012-09-09 12:53:00
9:53 AM,62.1,48.9,62,29.95,10.0,NW,4.6,-,N/A,,Scattered Clouds,320,2012-09-09 13:53:00
10:53 AM,64.0,48.0,56,29.97,10.0,NNW,6.9,-,N/A,,Scattered Clouds,330,2012-09-09 14:53:00
11:53 AM,66.0,48.0,52,29.97,10.0,NW,10.4,-,N/A,,Mostly Cloudy,320,2012-09-09 15:53:00
12:53 PM,66.9,48.0,51,29.99,10.0,NNW,8.1,-,N/A,,Mostly Cloudy,330,2012-09-09 16:53:00
1:53 PM,69.1,46.9,45,29.99,10.0,WNW,11.5,-,N/A,,Mostly Cloudy,290,2012-09-09 17:53:00
2:53 PM,66.9,46.0,47,29.99,10.0,NW,11.5,-,N/A,,Mostly Cloudy,320,2012-09-09 18:53:00
3:53 PM,69.1,44.1,40,29.99,10.0,NW,16.1,19.6,N/A,,Scattered Clouds,310,2012-09-09 19:53:00
4:53 PM,68.0,43.0,40,30.00,10.0,North,10.4,19.6,N/A,,Scattered Clouds,360,2012-09-09 20:53:00
5:53 PM,68.0,43.0,40,30.02,10.0,North,13.8,17.3,N/A,,Partly Cloudy,10,2012-09-09 21:53:00
6:53 PM,66.0,42.1,42,30.03,10.0,North,10.4,-,N/A,,Partly Cloudy,10,2012-09-09 22:53:00
7:53 PM,63.0,43.0,48,30.04,10.0,Calm,Calm,-,N/A,,Partly Cloudy,0,2012-09-09 23:53:00
8:53 PM,59.0,46.0,62,30.06,10.0,NNW,3.5,-,N/A,,Clear,340,2012-09-10 00:53:00
9:53 PM,57.0,46.9,69,30.07,10.0,Calm,Calm,-,N/A,,Clear,0,2012-09-10 01:53:00
10:53 PM,54.0,48.0,80,30.09,10.0,Calm,Calm,-,N/A,,Clear,0,2012-09-10 02:53:00
11:53 PM,54.0,46.0,75,30.10,10.0,Calm,Calm,-,N/A,,Clear,0,2012-09-10 03:53:00